K5TCS Weather Reports


Display with metric or nautical units.
time (UTC)temp
F
wind
direction
speed
MPH
gust
MPH
rain 1hr
in
rain 24hr
in
rain mn
in
humidity
%
barometer
mb
20220627052022 57 0 1.0 6.0 0.00 0.04 0.02 42 1034.9
20220627051021 57 45 1.0 7.0 0.00 0.04 0.02 41 1035.0
20220627050021 58 45 1.0 8.0 0.00 0.05 0.02 41 1034.6
20220627044022 58 45 2.0 10.0 0.00 0.06 0.02 40 1035.1
20220627035019 59 23 1.0 5.0 0.00 0.06 0.02 39 1033.1
20220627033016 59 45 2.0 11.0 0.00 0.06 0.02 40 1032.7
20220627032022 59 45 2.0 10.0 0.00 0.06 0.02 41 1032.5
20220627031021 59 23 2.0 7.0 0.00 0.06 0.02 41 1032.2
20220627030021 60 45 1.0 11.0 0.00 0.06 0.02 41 1032.0
20220627025023 60 45 2.0 8.0 0.00 0.06 0.02 43 1031.9
20220627023016 60 23 2.0 9.0 0.00 0.06 0.02 46 1031.5
20220627022021 61 45 2.0 9.0 0.00 0.06 0.02 48 1031.4
20220627021022 62 45 2.0 9.0 0.00 0.06 0.02 50 1031.9
20220627020021 63 45 2.0 9.0 0.00 0.06 0.02 53 1031.8
20220627015022 63 45 2.0 10.0 0.00 0.06 0.02 54 1031.7
20220627014021 64 45 2.0 10.0 0.00 0.06 0.02 56 1031.5
20220627013023 64 45 3.0 11.0 0.00 0.06 0.02 59 1031.6
20220627012017 65 45 4.0 11.0 0.00 0.06 0.02 61 1031.3
20220627011022 66 45 3.0 14.0 0.00 0.06 0.02 62 1031.6
20220627004022 68 45 3.0 13.0 0.00 0.06 0.02 62 1031.9
20220627003021 67 68 5.0 15.0 0.00 0.06 0.02 62 1031.2
20220627001020 71 45 2.0 13.0 0.00 0.06 0.02 58 1032.0
20220626234020 73 45 2.0 10.0 0.00 0.06 0.02 54 1032.3
20220626233023 72 90 3.0 10.0 0.00 0.06 0.02 53 1032.2
20220626232016 72 45 2.0 7.0 0.00 0.06 0.02 54 1032.4
20220626231019 72 45 1.0 6.0 0.00 0.06 0.02 54 1032.6
20220626225021 71 68 1.0 6.0 0.00 0.06 0.02 57 1033.0
20220626224022 71 45 2.0 8.0 0.00 0.06 0.02 58 1032.5
20220626223021 70 68 1.0 9.0 0.00 0.06 0.02 58 1032.8
20220626220022 72 45 3.0 10.0 0.00 0.06 0.02 55 1033.8
20220626215020 71 45 2.0 11.0 0.00 0.06 0.02 58 1033.9
20220626214020 71 45 3.0 10.0 0.00 0.06 0.02 57 1034.1
20220626213020 72 45 3.0 9.0 0.00 0.06 0.02 56 1034.2
20220626212021 71 45 3.0 9.0 0.00 0.06 0.02 58 1034.4
20220626211016 71 23 2.0 9.0 0.00 0.06 0.02 58 1034.4
20220626205020 70 45 4.0 12.0 0.00 0.06 0.02 60 1034.2
20220626204020 70 45 4.0 13.0 0.00 0.06 0.02 58 1034.2
20220626203024 70 45 4.0 10.0 0.00 0.06 0.02 59 1034.3
20220626202017 71 45 3.0 14.0 0.00 0.06 0.02 57 1034.5
20220626195027 69 45 4.0 13.0 0.00 0.06 0.02 60 1034.4
20220626194024 69 45 4.0 11.0 0.00 0.06 0.02 60 1034.9
20220626193022 68 45 4.0 11.0 0.00 0.06 0.02 61 1034.5
20220626192022 67 45 3.0 10.0 0.00 0.06 0.02 61 1034.5
20220626191017 67 45 2.0 7.0 0.00 0.07 0.02 61 1034.5
20220626190022 68 45 4.0 12.0 0.00 0.08 0.02 61 1034.6
20220626184023 66 23 4.0 12.0 0.00 0.09 0.02 61 1034.0
20220626183020 66 23 4.0 11.0 0.00 0.09 0.02 61 1034.0
20220626174023 65 45 3.0 11.0 0.00 0.09 0.02 61 1034.0
20220626173022 65 45 3.0 11.0 0.00 0.09 0.02 58 1034.3
20220626172022 63 45 3.0 10.0 0.00 0.09 0.02 59 1033.8
20220626170022 62 45 2.0 7.0 0.00 0.09 0.02 55 1033.6
20220626165022 62 45 4.0 11.0 0.00 0.09 0.02 57 1033.6
20220626164022 63 23 3.0 10.0 0.00 0.09 0.02 56 1034.1
20220626163021 63 23 2.0 11.0 0.00 0.09 0.02 52 1034.1
20220626162022 61 45 2.0 10.0 0.00 0.09 0.02 45 1033.5
20220626161022 60 45 3.0 7.0 0.00 0.09 0.02 43 1033.3
20220626160017 59 23 1.0 7.0 0.00 0.09 0.02 39 1032.7
20220626155022 58 23 3.0 9.0 0.00 0.09 0.02 39 1032.7
20220626151022 58 45 1.0 7.0 0.00 0.09 0.02 39 1032.9
20220626150016 58 23 3.0 11.0 0.00 0.09 0.02 38 1032.5
20220626144021 57 23 3.0 10.0 0.00 0.09 0.02 36 1032.5
20220626143022 57 23 3.0 13.0 0.00 0.09 0.02 36 1032.3
20220626142022 56 45 2.0 9.0 0.00 0.09 0.02 36 1032.3
20220626141022 56 45 2.0 11.0 0.00 0.09 0.02 36 1032.2
20220626140016 56 45 3.0 11.0 0.00 0.09 0.02 36 1032.2
20220626135017 56 23 2.0 9.0 0.00 0.09 0.02 36 1032.2
20220626134023 56 45 3.0 12.0 0.00 0.09 0.02 37 1032.2
20220626133022 56 45 3.0 13.0 0.00 0.09 0.02 37 1032.1
20220626132022 56 23 3.0 10.0 0.00 0.09 0.02 38 1032.1
20220626130021 56 45 4.0 11.0 0.00 0.09 0.02 39 1032.8
20220626123022 56 23 2.0 10.0 0.00 0.09 0.02 40 1033.4
20220626122021 56 45 3.0 11.0 0.00 0.09 0.02 41 1033.4
20220626121021 56 45 2.0 7.0 0.00 0.09 0.02 41 1032.9
20220626120021 56 45 2.0 7.0 0.00 0.09 0.02 41 1032.7
20220626115016 56 45 3.0 14.0 0.00 0.09 0.02 42 1032.5
20220626114021 56 23 3.0 13.0 0.00 0.09 0.02 42 1032.3
20220626112022 57 45 1.0 10.0 0.00 0.09 0.02 43 1032.5
20220626111021 57 23 3.0 11.0 0.00 0.09 0.02 43 1032.5
20220626110021 57 23 3.0 9.0 0.00 0.09 0.02 43 1032.2
20220626104016 57 45 3.0 9.0 0.00 0.09 0.02 43 1031.3
20220626103021 57 23 2.0 9.0 0.00 0.09 0.02 43 1030.9
20220626102022 57 23 3.0 10.0 0.00 0.09 0.02 43 1030.8
20220626101021 57 23 3.0 10.0 0.00 0.09 0.02 43 1030.3
20220626095020 57 23 3.0 11.0 0.00 0.09 0.02 43 1030.3
20220626094015 57 23 1.0 6.0 0.00 0.09 0.02 43 1030.8
20220626093021 57 23 2.0 8.0 0.00 0.09 0.02 43 1030.8
20220626092022 57 23 2.0 6.0 0.00 0.09 0.02 42 1030.6
20220626091021 57 23 2.0 10.0 0.00 0.09 0.02 41 1030.5
20220626090021 57 23 1.0 8.0 0.00 0.09 0.02 41 1030.6
20220626085020 57 0.0 5.0 0.00 0.09 0.02 40 1030.6
20220626084021 57 0.0 0.0 0.00 0.09 0.02 41 1030.8
20220626083015 56 0.0 4.0 0.00 0.09 0.02 41 1030.7
20220626082021 57 45 1.0 7.0 0.00 0.09 0.02 41 1030.7
20220626081020 57 0.0 5.0 0.00 0.09 0.02 41 1030.8
20220626080021 57 0.0 4.0 0.00 0.09 0.02 41 1030.9
20220626075019 57 23 1.0 6.0 0.00 0.09 0.02 41 1030.5
20220626074020 57 23 2.0 9.0 0.00 0.09 0.02 40 1030.1
20220626072020 57 0.0 4.0 0.01 0.09 0.02 37 1030.2
20220626071022 57 23 1.0 7.0 0.01 0.09 0.02 37 1029.8
20220626070022 57 0 1.0 5.0 0.02 0.09 0.02 37 1030.3
20220626065023 57 0.0 4.0 0.02 0.09 0.02 37 1031.7
20220626064017 57 23 1.0 5.0 0.02 0.09 0.02 37 1032.8
20220626063022 58 23 1.0 6.0 0.03 0.09 0.02 38 1033.2
20220626062022 58 0.0 4.0 0.03 0.08 0.01 38 1033.6
20220626060022 58 0.0 2.0 0.03 0.07 0.07 41 1033.7
20220626055021 58 45 1.0 6.0 0.03 0.07 0.07 41 1033.2
20220626054017 58 23 2.0 11.0 0.04 0.07 0.07 42 1033.2
20220626053022 59 23 2.0 11.0 0.03 0.06 0.06 44 1033.7